Location: Pl�tzky
(52.0521°N, 11.8020°E)
Time: 18:06:26
(UTC+00:00)

Cosmos 44 - Pass Details

Date: 22 November 2019
Orbit: 594 x 768 km, 65.1° (Epoch: 08 December)

Event Time Altitude Azimuth Distance (km) Brightness Sun altitude
Rises 17:05:34 0° 318° (NW) 2,882 6.9 -16.8°
Reaches altitude 10° 17:07:55 10° 324° (NW) 1,959 5.9 -17.1°
Maximum altitude 17:12:11 49° 40° (NE) 779 3.2 -17.8°
Enters shadow 17:13:18 39° 84° (E) 905 3.4 -17.9°
